Volver al catálogo

COSMOS 1833

ActivoMilitarLEO
NORAD 17589·PAYLOAD·🇷🇺 Russia

Lanzado Mar 18, 1987 desde Baikonur Cosmodrome

Loading…

Próximos Pases (próximas 24 horas)

TLE

ActualizadoSource: Space-Track

Época: Sep 14, 2026, 12:21 UTC

1 17589U 87027A   26257.51497941 -.00000328  00000-0 -14955-3 0  9998
2 17589  70.9166 289.1175 0027012 279.1389  80.6676 14.13049454 36990

Sigue COSMOS 1833 en tiempo real con AllMySat

Download on the App Store